owner,sensor,date,latitude,longitude,vertical_datum,mass_concentration_of_oxygen_in_sea_water,qcFlag 
SCCF RECON,ioos:station:SCCF:11:1,2013-10-01T00:00:00Z,26.4679,-82.0631,1.88,7.66,1111122 
SCCF RECON,ioos:station:SCCF:11:1,2013-10-01T01:00:00Z,26.4679,-82.0631,2.0,7.61,1111122 
SCCF RECON,ioos:station:SCCF:11:1,2013-10-01T02:00:00Z,26.4679,-82.0631,2.09,7.4,1111122 
SCCF RECON,ioos:station:SCCF:11:1,2013-10-01T03:00:00Z,26.4679,-82.0631,2.168,6.92,1111122 
SCCF RECON,ioos:station:SCCF:11:1,2013-10-01T04:00:00Z,26.4679,-82.0631,2.14,5.95,1111122 
SCCF RECON,ioos:station:SCCF:11:1,2013-10-01T05:00:00Z,26.4679,-82.0631,2.07,5.98,1111122 
SCCF RECON,ioos:station:SCCF:11:1,2013-10-01T06:00:00Z,26.4679,-82.0631,1.99,5.81,1111122 
SCCF RECON,ioos:station:SCCF:11:1,2013-10-01T07:00:00Z,26.4679,-82.0631,1.91,5.9,1111122 
SCCF RECON,ioos:station:SCCF:11:1,2013-10-01T08:00:00Z,26.4679,-82.0631,1.79,6.78,1111122 
SCCF RECON,ioos:station:SCCF:11:1,2013-10-01T09:00:00Z,26.4679,-82.0631,1.7,6.49,1111122 
SCCF RECON,ioos:station:SCCF:11:1,2013-10-01T10:00:00Z,26.4679,-82.0631,1.75,5.65,1111122 
SCCF RECON,ioos:station:SCCF:11:1,2013-10-01T11:00:00Z,26.4679,-82.0631,1.877,5.73,1111122 
SCCF RECON,ioos:station:SCCF:11:1,2013-10-01T12:00:00Z,26.4679,-82.0631,2.012,5.73,1111122 
SCCF RECON,ioos:station:SCCF:11:1,2013-10-01T13:00:00Z,26.4679,-82.0631,2.1,5.32,1111122 
SCCF RECON,ioos:station:SCCF:11:1,2013-10-01T14:00:00Z,26.4679,-82.0631,2.18,5.3,1111122 
SCCF RECON,ioos:station:SCCF:11:1,2013-10-01T15:00:00Z,26.4679,-82.0631,2.209,5.51,1111122 
SCCF RECON,ioos:station:SCCF:11:1,2013-10-01T16:00:00Z,26.4679,-82.0631,2.191,5.73,1111122 
SCCF RECON,ioos:station:SCCF:11:1,2013-10-01T17:00:00Z,26.4679,-82.0631,2.133,4.99,1111122 
SCCF RECON,ioos:station:SCCF:11:1,2013-10-01T18:00:00Z,26.4679,-82.0631,2.018,6.21,1111122 
SCCF RECON,ioos:station:SCCF:11:1,2013-10-01T19:00:00Z,26.4679,-82.0631,1.868,7.23,1111122 
SCCF RECON,ioos:station:SCCF:11:1,2013-10-01T20:00:00Z,26.4679,-82.0631,1.768,6.64,1111122 
SCCF RECON,ioos:station:SCCF:11:1,2013-10-01T21:00:00Z,26.4679,-82.0631,1.68,7.31,1111122 
SCCF RECON,ioos:station:SCCF:11:1,2013-10-01T22:00:00Z,26.4679,-82.0631,1.6,7.77,1111122 
SCCF RECON,ioos:station:SCCF:11:1,2013-10-01T23:00:00Z,26.4679,-82.0631,1.66,7.01,1111122 
SCCF RECON,ioos:station:SCCF:11:1,2013-10-02T00:00:00Z,26.4679,-82.0631,1.79,6.45,1111122 
SCCF RECON,ioos:station:SCCF:11:1,2013-10-02T01:00:00Z,26.4679,-82.0631,1.96,6.97,1111122 
SCCF RECON,ioos:station:SCCF:11:1,2013-10-02T02:00:00Z,26.4679,-82.0631,2.04,6.48,1111122 
SCCF RECON,ioos:station:SCCF:11:1,2013-10-02T03:00:00Z,26.4679,-82.0631,2.109,6.33,1111122 
SCCF RECON,ioos:station:SCCF:11:1,2013-10-02T04:00:00Z,26.4679,-82.0631,2.121,6.02,1111122 
SCCF RECON,ioos:station:SCCF:11:1,2013-10-02T05:00:00Z,26.4679,-82.0631,2.064,5.77,1111122 
SCCF RECON,ioos:station:SCCF:11:1,2013-10-02T06:00:00Z,26.4679,-82.0631,1.96,6.06,1111122 
SCCF RECON,ioos:station:SCCF:11:1,2013-10-02T07:00:00Z,26.4679,-82.0631,1.857,5.83,1111122 
SCCF RECON,ioos:station:SCCF:11:1,2013-10-02T08:00:00Z,26.4679,-82.0631,1.741,5.7,1111122 
SCCF RECON,ioos:station:SCCF:11:1,2013-10-02T09:00:00Z,26.4679,-82.0631,1.623,5.52,1111122 
SCCF RECON,ioos:station:SCCF:11:1,2013-10-02T10:00:00Z,26.4679,-82.0631,1.562,5.41,1111122 
SCCF RECON,ioos:station:SCCF:11:1,2013-10-02T11:00:00Z,26.4679,-82.0631,1.64,5.35,1111122 
SCCF RECON,ioos:station:SCCF:11:1,2013-10-02T12:00:00Z,26.4679,-82.0631,1.8,5.28,1111122 
SCCF RECON,ioos:station:SCCF:11:1,2013-10-02T13:00:00Z,26.4679,-82.0631,1.961,6.13,1111122 
SCCF RECON,ioos:station:SCCF:11:1,2013-10-02T14:00:00Z,26.4679,-82.0631,2.05,5.87,1111122 
SCCF RECON,ioos:station:SCCF:11:1,2013-10-02T15:00:00Z,26.4679,-82.0631,2.123,6.06,1111122 
SCCF RECON,ioos:station:SCCF:11:1,2013-10-02T16:00:00Z,26.4679,-82.0631,2.17,5.81,1111122 
SCCF RECON,ioos:station:SCCF:11:1,2013-10-02T17:00:00Z,26.4679,-82.0631,2.14,5.72,1111122 
SCCF RECON,ioos:station:SCCF:11:1,2013-10-02T18:00:00Z,26.4679,-82.0631,2.041,6.12,1111122 
SCCF RECON,ioos:station:SCCF:11:1,2013-10-02T19:00:00Z,26.4679,-82.0631,1.931,6.52,1111122 
SCCF RECON,ioos:station:SCCF:11:1,2013-10-02T20:00:00Z,26.4679,-82.0631,1.83,6.29,1111122 
SCCF RECON,ioos:station:SCCF:11:1,2013-10-02T21:00:00Z,26.4679,-82.0631,1.76,6.51,1111122 
SCCF RECON,ioos:station:SCCF:11:1,2013-10-02T22:00:00Z,26.4679,-82.0631,1.687,5.65,1111122 
SCCF RECON,ioos:station:SCCF:11:1,2013-10-02T23:00:00Z,26.4679,-82.0631,1.738,6.03,1111122 
SCCF RECON,ioos:station:SCCF:11:1,2013-10-03T00:00:00Z,26.4679,-82.0631,1.796,6.12,1111122 
SCCF RECON,ioos:station:SCCF:11:1,2013-10-03T01:00:00Z,26.4679,-82.0631,1.91,6.42,1111122 
SCCF RECON,ioos:station:SCCF:11:1,2013-10-03T02:00:00Z,26.4679,-82.0631,2.06,6.05,1111122 
SCCF RECON,ioos:station:SCCF:11:1,2013-10-03T03:00:00Z,26.4679,-82.0631,2.17,5.89,1111122 
SCCF RECON,ioos:station:SCCF:11:1,2013-10-03T04:00:00Z,26.4679,-82.0631,2.22,5.93,1111122 
SCCF RECON,ioos:station:SCCF:11:1,2013-10-03T05:00:00Z,26.4679,-82.0631,2.22,5.87,1111122 
SCCF RECON,ioos:station:SCCF:11:1,2013-10-03T06:00:00Z,26.4679,-82.0631,2.167,5.71,1111122 
SCCF RECON,ioos:station:SCCF:11:1,2013-10-03T07:00:00Z,26.4679,-82.0631,2.012,5.59,1111122 
SCCF RECON,ioos:station:SCCF:11:1,2013-10-03T08:00:00Z,26.4679,-82.0631,1.879,5.42,1111122 
SCCF RECON,ioos:station:SCCF:11:1,2013-10-03T09:00:00Z,26.4679,-82.0631,1.756,5.41,1111122 
SCCF RECON,ioos:station:SCCF:11:1,2013-10-03T10:00:00Z,26.4679,-82.0631,1.663,5.27,1111122 
SCCF RECON,ioos:station:SCCF:11:1,2013-10-03T11:00:00Z,26.4679,-82.0631,1.65,5.2,1111122 
SCCF RECON,ioos:station:SCCF:11:1,2013-10-03T12:00:00Z,26.4679,-82.0631,1.74,5.23,1111122 
SCCF RECON,ioos:station:SCCF:11:1,2013-10-03T13:00:00Z,26.4679,-82.0631,1.91,5.69,1111122 
SCCF RECON,ioos:station:SCCF:11:1,2013-10-03T14:00:00Z,26.4679,-82.0631,2.039,6.16,1111122 
SCCF RECON,ioos:station:SCCF:11:1,2013-10-03T15:00:00Z,26.4679,-82.0631,2.138,5.8,1111122 
SCCF RECON,ioos:station:SCCF:11:1,2013-10-03T16:00:00Z,26.4679,-82.0631,2.211,5.75,1111122 
SCCF RECON,ioos:station:SCCF:11:1,2013-10-03T17:00:00Z,26.4679,-82.0631,2.253,5.65,1111122 
SCCF RECON,ioos:station:SCCF:11:1,2013-10-03T18:00:00Z,26.4679,-82.0631,2.21,5.78,1111122 
SCCF RECON,ioos:station:SCCF:11:1,2013-10-03T19:00:00Z,26.4679,-82.0631,2.09,6.09,1111122 
SCCF RECON,ioos:station:SCCF:11:1,2013-10-03T20:00:00Z,26.4679,-82.0631,1.98,7.02,1111122 
SCCF RECON,ioos:station:SCCF:11:1,2013-10-03T21:00:00Z,26.4679,-82.0631,1.879,6.99,1111122 
SCCF RECON,ioos:station:SCCF:11:1,2013-10-03T22:00:00Z,26.4679,-82.0631,1.751,7.07,1111122 
SCCF RECON,ioos:station:SCCF:11:1,2013-10-03T23:00:00Z,26.4679,-82.0631,1.7,6.86,1111122 
SCCF RECON,ioos:station:SCCF:11:1,2013-10-04T00:00:00Z,26.4679,-82.0631,1.74,6.32,1111122 
SCCF RECON,ioos:station:SCCF:11:1,2013-10-04T01:00:00Z,26.4679,-82.0631,1.89,6.21,1111122 
SCCF RECON,ioos:station:SCCF:11:1,2013-10-04T02:00:00Z,26.4679,-82.0631,2.06,6.14,1111122 
SCCF RECON,ioos:station:SCCF:11:1,2013-10-04T03:00:00Z,26.4679,-82.0631,2.18,6.17,1111122 
SCCF RECON,ioos:station:SCCF:11:1,2013-10-04T04:00:00Z,26.4679,-82.0631,2.25,6.08,1111122 
SCCF RECON,ioos:station:SCCF:11:1,2013-10-04T05:00:00Z,26.4679,-82.0631,2.27,5.84,1111122 
SCCF RECON,ioos:station:SCCF:11:1,2013-10-04T06:00:00Z,26.4679,-82.0631,2.22,5.53,1111122 
SCCF RECON,ioos:station:SCCF:11:1,2013-10-04T07:00:00Z,26.4679,-82.0631,2.08,5.8,1111122 
SCCF RECON,ioos:station:SCCF:11:1,2013-10-04T08:00:00Z,26.4679,-82.0631,1.93,5.48,1111122 
SCCF RECON,ioos:station:SCCF:11:1,2013-10-04T09:00:00Z,26.4679,-82.0631,1.8,5.48,1111122 
SCCF RECON,ioos:station:SCCF:11:1,2013-10-04T10:00:00Z,26.4679,-82.0631,1.682,5.38,1111122 
SCCF RECON,ioos:station:SCCF:11:1,2013-10-04T11:00:00Z,26.4679,-82.0631,1.596,5.18,1111122 
SCCF RECON,ioos:station:SCCF:11:1,2013-10-04T12:00:00Z,26.4679,-82.0631,1.603,4.75,1111122 
SCCF RECON,ioos:station:SCCF:11:1,2013-10-04T13:00:00Z,26.4679,-82.0631,1.75,5.01,1111122 
SCCF RECON,ioos:station:SCCF:11:1,2013-10-04T14:00:00Z,26.4679,-82.0631,1.95,5.85,1111122 
SCCF RECON,ioos:station:SCCF:11:1,2013-10-04T15:00:00Z,26.4679,-82.0631,2.099,5.99,1111122 
SCCF RECON,ioos:station:SCCF:11:1,2013-10-04T16:00:00Z,26.4679,-82.0631,2.2,5.65,1111122 
SCCF RECON,ioos:station:SCCF:11:1,2013-10-04T17:00:00Z,26.4679,-82.0631,2.262,5.3,1111122 
SCCF RECON,ioos:station:SCCF:11:1,2013-10-04T18:00:00Z,26.4679,-82.0631,2.243,5.71,1111122 
SCCF RECON,ioos:station:SCCF:11:1,2013-10-04T19:00:00Z,26.4679,-82.0631,2.152,5.88,1111122 
SCCF RECON,ioos:station:SCCF:11:1,2013-10-04T20:00:00Z,26.4679,-82.0631,2.025,6.61,1111122 
SCCF RECON,ioos:station:SCCF:11:1,2013-10-04T21:00:00Z,26.4679,-82.0631,1.905,6.62,1111122 
SCCF RECON,ioos:station:SCCF:11:1,2013-10-04T22:00:00Z,26.4679,-82.0631,1.82,6.92,1111122 
SCCF RECON,ioos:station:SCCF:11:1,2013-10-04T23:00:00Z,26.4679,-82.0631,1.75,6.79,1111122 
SCCF RECON,ioos:station:SCCF:11:1,2013-10-05T00:00:00Z,26.4679,-82.0631,1.711,6.51,1111122 
SCCF RECON,ioos:station:SCCF:11:1,2013-10-05T01:00:00Z,26.4679,-82.0631,1.81,6.56,1111122 
SCCF RECON,ioos:station:SCCF:11:1,2013-10-05T02:00:00Z,26.4679,-82.0631,2.0,5.86,1111122 
SCCF RECON,ioos:station:SCCF:11:1,2013-10-05T03:00:00Z,26.4679,-82.0631,2.145,6.28,1111122 
SCCF RECON,ioos:station:SCCF:11:1,2013-10-05T04:00:00Z,26.4679,-82.0631,2.24,6.13,1111122 
SCCF RECON,ioos:station:SCCF:11:1,2013-10-05T05:00:00Z,26.4679,-82.0631,2.3,5.84,1111122 
SCCF RECON,ioos:station:SCCF:11:1,2013-10-05T06:00:00Z,26.4679,-82.0631,2.27,5.79,1111122 
SCCF RECON,ioos:station:SCCF:11:1,2013-10-05T07:00:00Z,26.4679,-82.0631,2.15,5.91,1111122 
SCCF RECON,ioos:station:SCCF:11:1,2013-10-05T08:00:00Z,26.4679,-82.0631,1.98,5.61,1111122 
SCCF RECON,ioos:station:SCCF:11:1,2013-10-05T09:00:00Z,26.4679,-82.0631,1.826,5.42,1111122 
SCCF RECON,ioos:station:SCCF:11:1,2013-10-05T10:00:00Z,26.4679,-82.0631,1.692,5.39,1111122 
SCCF RECON,ioos:station:SCCF:11:1,2013-10-05T11:00:00Z,26.4679,-82.0631,1.571,5.1,1111122 
SCCF RECON,ioos:station:SCCF:11:1,2013-10-05T12:00:00Z,26.4679,-82.0631,1.509,5.04,1111122 
SCCF RECON,ioos:station:SCCF:11:1,2013-10-05T13:00:00Z,26.4679,-82.0631,1.558,4.73,1111122 
SCCF RECON,ioos:station:SCCF:11:1,2013-10-05T14:00:00Z,26.4679,-82.0631,1.74,5.14,1111122 
SCCF RECON,ioos:station:SCCF:11:1,2013-10-05T15:00:00Z,26.4679,-82.0631,1.941,5.86,1111122 
SCCF RECON,ioos:station:SCCF:11:1,2013-10-05T16:00:00Z,26.4679,-82.0631,2.05,5.86,1111122 
SCCF RECON,ioos:station:SCCF:11:1,2013-10-05T17:00:00Z,26.4679,-82.0631,2.14,5.6,1111122 
SCCF RECON,ioos:station:SCCF:11:1,2013-10-05T18:00:00Z,26.4679,-82.0631,2.189,5.36,1111122 
SCCF RECON,ioos:station:SCCF:11:1,2013-10-05T19:00:00Z,26.4679,-82.0631,2.158,5.84,1111122 
SCCF RECON,ioos:station:SCCF:11:1,2013-10-05T20:00:00Z,26.4679,-82.0631,2.039,6.1,1111122 
SCCF RECON,ioos:station:SCCF:11:1,2013-10-05T21:00:00Z,26.4679,-82.0631,1.904,6.19,1111122 
SCCF RECON,ioos:station:SCCF:11:1,2013-10-05T22:00:00Z,26.4679,-82.0631,1.811,6.26,1111122 
SCCF RECON,ioos:station:SCCF:11:1,2013-10-05T23:00:00Z,26.4679,-82.0631,1.729,6.11,1111122 
SCCF RECON,ioos:station:SCCF:11:1,2013-10-06T00:00:00Z,26.4679,-82.0631,1.68,6.05,1111122 
SCCF RECON,ioos:station:SCCF:11:1,2013-10-06T01:00:00Z,26.4679,-82.0631,1.73,6.3,1111122 
SCCF RECON,ioos:station:SCCF:11:1,2013-10-06T02:00:00Z,26.4679,-82.0631,1.89,5.88,1111122 
SCCF RECON,ioos:station:SCCF:11:1,2013-10-06T03:00:00Z,26.4679,-82.0631,2.07,5.36,1111122 
SCCF RECON,ioos:station:SCCF:11:1,2013-10-06T04:00:00Z,26.4679,-82.0631,2.19,5.78,1111122 
SCCF RECON,ioos:station:SCCF:11:1,2013-10-06T05:00:00Z,26.4679,-82.0631,2.26,5.82,1111122 
SCCF RECON,ioos:station:SCCF:11:1,2013-10-06T06:00:00Z,26.4679,-82.0631,2.3,5.67,1111122 
SCCF RECON,ioos:station:SCCF:11:1,2013-10-06T07:00:00Z,26.4679,-82.0631,2.232,5.64,1111122 
SCCF RECON,ioos:station:SCCF:11:1,2013-10-06T08:00:00Z,26.4679,-82.0631,2.081,5.7,1111122 
SCCF RECON,ioos:station:SCCF:11:1,2013-10-06T09:00:00Z,26.4679,-82.0631,1.904,5.2,1111122 
SCCF RECON,ioos:station:SCCF:11:1,2013-10-06T10:00:00Z,26.4679,-82.0631,1.767,4.95,1111122 
SCCF RECON,ioos:station:SCCF:11:1,2013-10-06T11:00:00Z,26.4679,-82.0631,1.641,4.81,1111122 
SCCF RECON,ioos:station:SCCF:11:1,2013-10-06T12:00:00Z,26.4679,-82.0631,1.549,4.67,1111122 
SCCF RECON,ioos:station:SCCF:11:1,2013-10-06T13:00:00Z,26.4679,-82.0631,1.52,4.7,1111122 
SCCF RECON,ioos:station:SCCF:11:1,2013-10-06T14:00:00Z,26.4679,-82.0631,1.633,4.84,1111122 
SCCF RECON,ioos:station:SCCF:11:1,2013-10-06T15:00:00Z,26.4679,-82.0631,1.845,5.39,1111122 
SCCF RECON,ioos:station:SCCF:11:1,2013-10-06T16:00:00Z,26.4679,-82.0631,2.0,5.79,1111122 
SCCF RECON,ioos:station:SCCF:11:1,2013-10-06T17:00:00Z,26.4679,-82.0631,2.092,5.7,1111122 
SCCF RECON,ioos:station:SCCF:11:1,2013-10-06T18:00:00Z,26.4679,-82.0631,2.165,5.55,1111122 
SCCF RECON,ioos:station:SCCF:11:1,2013-10-06T19:00:00Z,26.4679,-82.0631,2.194,5.77,1111122 
SCCF RECON,ioos:station:SCCF:11:1,2013-10-06T20:00:00Z,26.4679,-82.0631,2.152,5.95,1111122 
SCCF RECON,ioos:station:SCCF:11:1,2013-10-06T21:00:00Z,26.4679,-82.0631,2.029,6.82,1111122 
SCCF RECON,ioos:station:SCCF:11:1,2013-10-06T22:00:00Z,26.4679,-82.0631,1.9,6.97,1111122 
SCCF RECON,ioos:station:SCCF:11:1,2013-10-06T23:00:00Z,26.4679,-82.0631,1.804,6.72,1111122 
SCCF RECON,ioos:station:SCCF:11:1,2013-10-07T00:00:00Z,26.4679,-82.0631,1.73,6.55,1111122 
SCCF RECON,ioos:station:SCCF:11:1,2013-10-07T01:00:00Z,26.4679,-82.0631,1.7,6.18,1111122 
SCCF RECON,ioos:station:SCCF:11:1,2013-10-07T02:00:00Z,26.4679,-82.0631,1.8,6.26,1111122 
SCCF RECON,ioos:station:SCCF:11:1,2013-10-07T03:00:00Z,26.4679,-82.0631,1.97,6.27,1111122 
SCCF RECON,ioos:station:SCCF:11:1,2013-10-07T04:00:00Z,26.4679,-82.0631,2.14,6.17,1111122 
SCCF RECON,ioos:station:SCCF:11:1,2013-10-07T05:00:00Z,26.4679,-82.0631,2.23,6.17,1111122 
SCCF RECON,ioos:station:SCCF:11:1,2013-10-07T06:00:00Z,26.4679,-82.0631,2.28,5.93,1111122 
SCCF RECON,ioos:station:SCCF:11:1,2013-10-07T07:00:00Z,26.4679,-82.0631,2.271,5.74,1111122 
SCCF RECON,ioos:station:SCCF:11:1,2013-10-07T08:00:00Z,26.4679,-82.0631,2.186,5.95,1111122 
SCCF RECON,ioos:station:SCCF:11:1,2013-10-07T09:00:00Z,26.4679,-82.0631,2.02,5.73,1111122 
SCCF RECON,ioos:station:SCCF:11:1,2013-10-07T10:00:00Z,26.4679,-82.0631,1.862,5.24,1111122 
SCCF RECON,ioos:station:SCCF:11:1,2013-10-07T11:00:00Z,26.4679,-82.0631,1.71,5.11,1111122 
SCCF RECON,ioos:station:SCCF:11:1,2013-10-07T12:00:00Z,26.4679,-82.0631,1.59,4.99,1111122 
SCCF RECON,ioos:station:SCCF:11:1,2013-10-07T13:00:00Z,26.4679,-82.0631,1.5,4.92,1111122 
SCCF RECON,ioos:station:SCCF:11:1,2013-10-07T14:00:00Z,26.4679,-82.0631,1.521,5.2,1111122 
SCCF RECON,ioos:station:SCCF:11:1,2013-10-07T15:00:00Z,26.4679,-82.0631,1.671,5.57,1111122 
SCCF RECON,ioos:station:SCCF:11:1,2013-10-07T16:00:00Z,26.4679,-82.0631,1.853,5.81,1111122 
SCCF RECON,ioos:station:SCCF:11:1,2013-10-07T17:00:00Z,26.4679,-82.0631,2.02,5.78,1111122 
SCCF RECON,ioos:station:SCCF:11:1,2013-10-07T18:00:00Z,26.4679,-82.0631,2.142,5.83,1111122 
SCCF RECON,ioos:station:SCCF:11:1,2013-10-07T19:00:00Z,26.4679,-82.0631,2.213,6.25,1111122 
SCCF RECON,ioos:station:SCCF:11:1,2013-10-07T20:00:00Z,26.4679,-82.0631,2.209,6.04,1111122 
SCCF RECON,ioos:station:SCCF:11:1,2013-10-07T21:00:00Z,26.4679,-82.0631,2.161,6.01,1111122 
SCCF RECON,ioos:station:SCCF:11:1,2013-10-07T22:00:00Z,26.4679,-82.0631,2.05,7.0,1111122 
SCCF RECON,ioos:station:SCCF:11:1,2013-10-07T23:00:00Z,26.4679,-82.0631,1.949,6.54,1111122 
SCCF RECON,ioos:station:SCCF:11:1,2013-10-08T00:00:00Z,26.4679,-82.0631,1.871,6.23,1111122 
SCCF RECON,ioos:station:SCCF:11:1,2013-10-08T01:00:00Z,26.4679,-82.0631,1.836,6.12,1111122 
SCCF RECON,ioos:station:SCCF:11:1,2013-10-08T02:00:00Z,26.4679,-82.0631,1.82,6.05,1111122 
SCCF RECON,ioos:station:SCCF:11:1,2013-10-08T03:00:00Z,26.4679,-82.0631,1.903,5.8,1111122 
SCCF RECON,ioos:station:SCCF:11:1,2013-10-08T04:00:00Z,26.4679,-82.0631,2.041,5.96,1111122 
SCCF RECON,ioos:station:SCCF:11:1,2013-10-08T05:00:00Z,26.4679,-82.0631,2.18,5.47,1111122 
SCCF RECON,ioos:station:SCCF:11:1,2013-10-08T06:00:00Z,26.4679,-82.0631,2.26,5.93,1111122 
SCCF RECON,ioos:station:SCCF:11:1,2013-10-08T07:00:00Z,26.4679,-82.0631,2.288,5.98,1111122 
SCCF RECON,ioos:station:SCCF:11:1,2013-10-08T08:00:00Z,26.4679,-82.0631,2.239,5.81,1111122 
SCCF RECON,ioos:station:SCCF:11:1,2013-10-08T09:00:00Z,26.4679,-82.0631,2.11,5.56,1111122 
SCCF RECON,ioos:station:SCCF:11:1,2013-10-08T10:00:00Z,26.4679,-82.0631,1.941,5.33,1111122 
SCCF RECON,ioos:station:SCCF:11:1,2013-10-08T11:00:00Z,26.4679,-82.0631,1.785,4.99,1111122 
SCCF RECON,ioos:station:SCCF:11:1,2013-10-08T12:00:00Z,26.4679,-82.0631,1.641,5.1,1111122 
SCCF RECON,ioos:station:SCCF:11:1,2013-10-08T13:00:00Z,26.4679,-82.0631,1.529,5.16,1111122 
SCCF RECON,ioos:station:SCCF:11:1,2013-10-08T14:00:00Z,26.4679,-82.0631,1.453,5.29,1111122 
SCCF RECON,ioos:station:SCCF:11:1,2013-10-08T15:00:00Z,26.4679,-82.0631,1.469,5.19,1111122 
SCCF RECON,ioos:station:SCCF:11:1,2013-10-08T16:00:00Z,26.4679,-82.0631,1.59,5.94,1111122 
SCCF RECON,ioos:station:SCCF:11:1,2013-10-08T17:00:00Z,26.4679,-82.0631,1.744,5.74,1111122 
SCCF RECON,ioos:station:SCCF:11:1,2013-10-08T18:00:00Z,26.4679,-82.0631,1.861,6.53,1111122 
SCCF RECON,ioos:station:SCCF:11:1,2013-10-08T19:00:00Z,26.4679,-82.0631,1.953,6.05,1111122 
SCCF RECON,ioos:station:SCCF:11:1,2013-10-08T20:00:00Z,26.4679,-82.0631,2.018,5.95,1111122 
SCCF RECON,ioos:station:SCCF:11:1,2013-10-08T21:00:00Z,26.4679,-82.0631,2.035,5.82,1111122 
SCCF RECON,ioos:station:SCCF:11:1,2013-10-08T22:00:00Z,26.4679,-82.0631,1.977,7.69,1111122 
SCCF RECON,ioos:station:SCCF:11:1,2013-10-08T23:00:00Z,26.4679,-82.0631,1.898,7.4,1111122 
SCCF RECON,ioos:station:SCCF:11:1,2013-10-09T00:00:00Z,26.4679,-82.0631,1.812,7.69,1111122 
SCCF RECON,ioos:station:SCCF:11:1,2013-10-09T01:00:00Z,26.4679,-82.0631,1.75,7.0,1111122 
SCCF RECON,ioos:station:SCCF:11:1,2013-10-09T02:00:00Z,26.4679,-82.0631,1.74,6.65,1111122 
SCCF RECON,ioos:station:SCCF:11:1,2013-10-09T03:00:00Z,26.4679,-82.0631,1.78,6.16,1111122 
SCCF RECON,ioos:station:SCCF:11:1,2013-10-09T04:00:00Z,26.4679,-82.0631,1.896,5.8,1111122 
SCCF RECON,ioos:station:SCCF:11:1,2013-10-09T05:00:00Z,26.4679,-82.0631,2.01,5.36,1111122 
SCCF RECON,ioos:station:SCCF:11:1,2013-10-09T06:00:00Z,26.4679,-82.0631,2.14,5.49,1111122 
SCCF RECON,ioos:station:SCCF:11:1,2013-10-09T07:00:00Z,26.4679,-82.0631,2.206,5.76,1111122 
SCCF RECON,ioos:station:SCCF:11:1,2013-10-09T08:00:00Z,26.4679,-82.0631,2.18,5.46,1111122 
SCCF RECON,ioos:station:SCCF:11:1,2013-10-09T09:00:00Z,26.4679,-82.0631,2.12,5.69,1111122 
SCCF RECON,ioos:station:SCCF:11:1,2013-10-09T10:00:00Z,26.4679,-82.0631,1.987,5.6,1111122 
SCCF RECON,ioos:station:SCCF:11:1,2013-10-09T11:00:00Z,26.4679,-82.0631,1.857,5.24,1111122 
SCCF RECON,ioos:station:SCCF:11:1,2013-10-09T12:00:00Z,26.4679,-82.0631,1.703,5.16,1111122 
SCCF RECON,ioos:station:SCCF:11:1,2013-10-09T13:00:00Z,26.4679,-82.0631,1.585,4.92,1111122 
SCCF RECON,ioos:station:SCCF:11:1,2013-10-09T14:00:00Z,26.4679,-82.0631,1.469,5.19,1111122 
SCCF RECON,ioos:station:SCCF:11:1,2013-10-09T15:00:00Z,26.4679,-82.0631,1.396,5.38,1111122 
SCCF RECON,ioos:station:SCCF:11:1,2013-10-09T16:00:00Z,26.4679,-82.0631,1.419,5.66,1111122 
SCCF RECON,ioos:station:SCCF:11:1,2013-10-09T17:00:00Z,26.4679,-82.0631,1.559,5.94,1111122 
SCCF RECON,ioos:station:SCCF:11:1,2013-10-09T18:00:00Z,26.4679,-82.0631,1.71,6.49,1111122 
SCCF RECON,ioos:station:SCCF:11:1,2013-10-09T19:00:00Z,26.4679,-82.0631,1.81,6.33,1111122 
SCCF RECON,ioos:station:SCCF:11:1,2013-10-09T20:00:00Z,26.4679,-82.0631,1.882,6.58,1111122 
SCCF RECON,ioos:station:SCCF:11:1,2013-10-09T21:00:00Z,26.4679,-82.0631,1.97,6.1,1111122 
SCCF RECON,ioos:station:SCCF:11:1,2013-10-09T22:00:00Z,26.4679,-82.0631,1.992,5.95,1111122 
SCCF RECON,ioos:station:SCCF:11:1,2013-10-09T23:00:00Z,26.4679,-82.0631,1.954,5.84,1111122 
SCCF RECON,ioos:station:SCCF:11:1,2013-10-10T00:00:00Z,26.4679,-82.0631,1.881,6.81,1111122 
SCCF RECON,ioos:station:SCCF:11:1,2013-10-10T01:00:00Z,26.4679,-82.0631,1.828,6.97,1111122 
SCCF RECON,ioos:station:SCCF:11:1,2013-10-10T02:00:00Z,26.4679,-82.0631,1.79,6.81,1111122 
SCCF RECON,ioos:station:SCCF:11:1,2013-10-10T03:00:00Z,26.4679,-82.0631,1.785,6.78,1111122 
SCCF RECON,ioos:station:SCCF:11:1,2013-10-10T04:00:00Z,26.4679,-82.0631,1.84,6.63,1111122 
SCCF RECON,ioos:station:SCCF:11:1,2013-10-10T05:00:00Z,26.4679,-82.0631,1.92,6.58,1111122 
SCCF RECON,ioos:station:SCCF:11:1,2013-10-10T06:00:00Z,26.4679,-82.0631,2.02,6.34,1111122 
SCCF RECON,ioos:station:SCCF:11:1,2013-10-10T07:00:00Z,26.4679,-82.0631,2.1,6.25,1111122 
SCCF RECON,ioos:station:SCCF:11:1,2013-10-10T08:00:00Z,26.4679,-82.0631,2.15,6.24,1111122 
SCCF RECON,ioos:station:SCCF:11:1,2013-10-10T09:00:00Z,26.4679,-82.0631,2.14,5.99,1111122 
SCCF RECON,ioos:station:SCCF:11:1,2013-10-10T10:00:00Z,26.4679,-82.0631,2.08,6.03,1111122 
SCCF RECON,ioos:station:SCCF:11:1,2013-10-10T11:00:00Z,26.4679,-82.0631,1.97,6.13,1111122 
SCCF RECON,ioos:station:SCCF:11:1,2013-10-10T12:00:00Z,26.4679,-82.0631,1.857,5.89,1111122 
SCCF RECON,ioos:station:SCCF:11:1,2013-10-10T13:00:00Z,26.4679,-82.0631,1.718,5.71,1111122 
SCCF RECON,ioos:station:SCCF:11:1,2013-10-10T14:00:00Z,26.4679,-82.0631,1.591,5.74,1111122 
SCCF RECON,ioos:station:SCCF:11:1,2013-10-10T15:00:00Z,26.4679,-82.0631,1.492,5.91,1111122 
SCCF RECON,ioos:station:SCCF:11:1,2013-10-10T16:00:00Z,26.4679,-82.0631,1.421,6.46,1111122 
SCCF RECON,ioos:station:SCCF:11:1,2013-10-10T17:00:00Z,26.4679,-82.0631,1.446,6.91,1111122 
SCCF RECON,ioos:station:SCCF:11:1,2013-10-10T18:00:00Z,26.4679,-82.0631,1.55,6.79,1111122 
SCCF RECON,ioos:station:SCCF:11:1,2013-10-10T19:00:00Z,26.4679,-82.0631,1.67,7.02,1111122 
SCCF RECON,ioos:station:SCCF:11:1,2013-10-10T20:00:00Z,26.4679,-82.0631,1.768,6.81,1111122 
SCCF RECON,ioos:station:SCCF:11:1,2013-10-10T21:00:00Z,26.4679,-82.0631,1.853,6.91,1111122 
SCCF RECON,ioos:station:SCCF:11:1,2013-10-10T22:00:00Z,26.4679,-82.0631,1.922,6.66,1111122 
SCCF RECON,ioos:station:SCCF:11:1,2013-10-10T23:00:00Z,26.4679,-82.0631,1.958,6.28,1111122 
SCCF RECON,ioos:station:SCCF:11:1,2013-10-11T00:00:00Z,26.4679,-82.0631,1.938,6.62,1111122 
SCCF RECON,ioos:station:SCCF:11:1,2013-10-11T01:00:00Z,26.4679,-82.0631,1.89,7.36,1111122 
SCCF RECON,ioos:station:SCCF:11:1,2013-10-11T02:00:00Z,26.4679,-82.0631,1.86,7.21,1111122 
SCCF RECON,ioos:station:SCCF:11:1,2013-10-11T03:00:00Z,26.4679,-82.0631,1.839,7.1,1111122 
SCCF RECON,ioos:station:SCCF:11:1,2013-10-11T04:00:00Z,26.4679,-82.0631,1.82,7.16,1111122 
SCCF RECON,ioos:station:SCCF:11:1,2013-10-11T05:00:00Z,26.4679,-82.0631,1.82,7.05,1111122 
SCCF RECON,ioos:station:SCCF:11:1,2013-10-11T06:00:00Z,26.4679,-82.0631,1.89,6.25,1111122 
SCCF RECON,ioos:station:SCCF:11:1,2013-10-11T07:00:00Z,26.4679,-82.0631,1.99,5.31,1111122 
SCCF RECON,ioos:station:SCCF:11:1,2013-10-11T08:00:00Z,26.4679,-82.0631,2.08,5.96,1111122 
SCCF RECON,ioos:station:SCCF:11:1,2013-10-11T09:00:00Z,26.4679,-82.0631,2.12,6.2,1111122 
SCCF RECON,ioos:station:SCCF:11:1,2013-10-11T10:00:00Z,26.4679,-82.0631,2.11,6.1,1111122 
SCCF RECON,ioos:station:SCCF:11:1,2013-10-11T11:00:00Z,26.4679,-82.0631,2.08,5.63,1111122 
SCCF RECON,ioos:station:SCCF:11:1,2013-10-11T12:00:00Z,26.4679,-82.0631,2.02,5.69,1111122 
SCCF RECON,ioos:station:SCCF:11:1,2013-10-11T13:00:00Z,26.4679,-82.0631,1.9,5.99,1111122 
SCCF RECON,ioos:station:SCCF:11:1,2013-10-17T16:00:00Z,26.4679,-82.0631,2.249,6.13,1111122 
SCCF RECON,ioos:station:SCCF:11:1,2013-10-17T17:00:00Z,26.4679,-82.0631,2.29,6.33,1111122 
SCCF RECON,ioos:station:SCCF:11:1,2013-10-17T18:00:00Z,26.4679,-82.0631,2.249,6.44,1111122 
SCCF RECON,ioos:station:SCCF:11:1,2013-10-17T19:00:00Z,26.4679,-82.0631,2.119,7.3,1111122 
SCCF RECON,ioos:station:SCCF:11:1,2013-10-17T20:00:00Z,26.4679,-82.0631,1.986,7.36,1111122 
SCCF RECON,ioos:station:SCCF:11:1,2013-10-17T21:00:00Z,26.4679,-82.0631,1.873,7.37,1111122 
SCCF RECON,ioos:station:SCCF:11:1,2013-10-17T22:00:00Z,26.4679,-82.0631,1.786,7.32,1111122 